Location: Bad Salzschlirf
(50.3750°N, 9.3000°E)
Time: 16:38:39
(UTC+01:00)

ISS - Pass Details

Date: 24 January 2020
Orbit: 415 x 421 km, 51.6° (Epoch: 18 January)

Event Time Altitude Azimuth Distance (km) Brightness Sun altitude
Rises 18:22:45 0° 225° (SW) 2,356 1.2 -12.8°
Reaches altitude 10° 18:24:57 10° 217° (SW) 1,494 -0.2 -13.1°
Maximum altitude 18:28:02 35° 150° (SSE) 694 -2.8 -13.6°
Enters shadow 18:29:24 24° 103° (ESE) 908 -2.6 -13.8°
